COSMOS 622

导读 | 星芒AI

COSMOS 622 是苏联于1973年12月28日发射的一颗电子侦察卫星,用于监听和收集外国的无线电通信和雷达信号。该卫星属于“流星”系列,运行在近地轨道,任务重点是军事情报收集。COSMOS 622 在轨道上运行了约两周后失联,最终再入大气层烧毁。尽管任务时间较短,但它体现了冷战时期苏联在空间侦察领域的技术发展和战略部署。

基本信息
目录编号:
6990
目录名称:
COSMOS 622
国际标识:
1973-104F
轨道中心:
EARTH
卫星名称:
COSMOS 622
卫星全名:
--
卫星状态:
在轨 (已飞行18989 天)
发射日期:
1973-12-19 UTC
国别 :
俄罗斯(独联体) (CIS)
星等 :
--
轨道信息
数据来源 国际轨道数据 AOE轨道数据
星历时间 2025-12-15T05:22:51+0800
20小时前
查看轨道信息
2025-12-12T06:00:00+0800
3天前
查看轨道信息
半长轴 7804.727km 7804.73km
偏心率 0.0074412 0.007442
轨道倾角 74.027° 74.028°
近地点辐角 241.237° 245.685°
升交点赤经 141.429° 145.449°
平近点角 287.521° 126.083°
近地点 1368.515km 1368.512km
远地点 1484.669km 1484.678km
周期 114.366分钟 114.366分钟
每日圈数 12.591173 12.591166
详细信息
使用方式:
暂无
2D轨道图
3D轨道图
轨道高度分析图
轨道倾角分析图
轨道综合分析图
查看轨道综合分析图